This demonstration page uses our WeatherBlox Daily Observations layout. Learn more.

38.88101, -77.10428

Hourly Observations for December 29, 2018

Temp ( °F °C ) Dew Point ( °F °C ) Humidity (%) Winds ( mph kmh ) Pressure ( in mb ) Visibility ( mi km ) Precip ( " mm )
12:34 am 00:34 Cloudy with Fog 52 11.1 50 10 93 93 Calm 29.91 1013 7 11.26538 0 0
12:52 am 00:52 Cloudy with Fog 51 10.6 49 9.4 92 92 Calm 29.93 1014 7 11.26538 0 0
1:01 am 01:01 Partly Cloudy with Fog 51 10.6 50 10 96 96 S 3 6 29.94 1014 7 11.26538 0 0
1:38 am 01:38 Mostly Cloudy with Mist and Fog 48 8.9 46 7.8 93 93 S 3 6 29.94 1014 1 1.60934 0 0
1:43 am 01:43 Mostly Cloudy with Mist and Fog 48 8.9 46 7.8 93 93 SSE 5 7 29.94 1014 0.75 1.207005 0 0
1:46 am 01:46 Mostly Cloudy with Fog 48 9 46 8 94 94 SSE 5 7 29.94 1014 0.5 0.80467 0 0
1:52 am 01:52 Mostly Cloudy with Fog 48 8.9 46 7.8 93 93 SSE 5 7 29.93 1014 1 1.60934 0 0
2:01 am 02:01 Partly Cloudy with Fog 46 7.8 44 6.7 93 93 Calm 29.94 1014 0.5 0.80467 0 0
2:10 am 02:10 Mostly Clear with Fog 48 8.9 46 7.8 93 93 Calm 29.94 1014 3 4.82802 0 0
2:22 am 02:22 Mostly Clear with Fog 48 8.9 47 8.3 96 96 N 5 7 29.94 1014 4 6.43736 0 0
2:48 am 02:48 Mostly Clear with Fog 45 7 43 6 93 93 Calm 29.97 1015 3 4.82802 0 0
2:52 am 02:52 Mostly Clear with Fog 45 7.2 44 6.7 97 97 Calm 29.96 1015 3 4.82802 0 0
3:12 am 03:12 Mostly Clear with Fog 45 7.2 44 6.7 97 97 Calm 29.97 1015 4 6.43736 0 0
3:26 am 03:26 Mostly Clear with Fog 45 7.2 43 6.1 93 93 SSE 3 6 29.97 1015 4 6.43736 0 0
3:28 am 03:28 Mostly Cloudy with Fog 45 7.2 43 6.1 93 93 S 3 6 29.97 1015 0.5 0.80467 0 0
3:42 am 03:42 Partly Cloudy with Fog 45 7.2 43 6.1 93 93 S 3 6 29.97 1015 0.25 0.402335 0 0
3:52 am 03:52 Partly Cloudy with Fog 44 6.7 43 6.1 96 96 S 5 7 29.96 1015 0.25 0.402335 0 0
4:07 am 04:07 Mostly Clear with Mist and Fog 44 6.7 42 5.6 93 93 Calm 29.97 1015 5 8.0467 0 0
4:52 am 04:52 Mostly Cloudy with Mist and Fog 44 6.7 42 5.6 93 93 VRB 5 7 29.96 1015 3 4.82802 0 0
5:52 am 05:52 Mostly Cloudy with Fog 45 7.2 43 6.1 93 93 SW 3 6 29.99 1016 8 12.87472 0 0
6:52 am 06:52 Mostly Cloudy with Mist and Fog 43 6.1 42 5.6 97 97 NW 5 7 30.02 1017 4 6.43736 0 0
6:55 am 06:55 Clear with Mist and Fog 42 5.6 40 4.4 92 92 Calm 30.03 1017 1.5 2.41401 0 0
7:03 am 07:03 Mostly Cloudy with Fog 42 5.6 41 5 96 96 Calm 30.03 1017 4 6.43736 0 0
7:52 am 07:52 Mostly Cloudy with Fog 45 7.2 43 6.1 93 93 Calm 30.06 1018 6 9.65604 0 0
8:52 am 08:52 Mostly Cloudy 50 10 47 8.3 89 89 N 3 6 30.1 1019 10 16.0934 0 0
9:52 am 09:52 Mostly Cloudy 55 12.8 45 7.2 69 69 NNE 6 9 30.12 1020 10 16.0934 0 0
10:52 am 10:52 Mostly Cloudy 57 13.9 40 4.4 53 53 NNW 13 20 30.13 1020 10 16.0934 0 0
11:52 am 11:52 Mostly Cloudy 57 13.9 39 3.9 51 51 NNW 16 26 30.12 1020 10 16.0934 0 0
12:52 pm 12:52 Partly Cloudy 57 13.9 36 2.2 45 45 N 17 28 30.13 1020 10 16.0934 0 0
1:52 pm 13:52 Mostly Cloudy 56 13.3 35 1.7 46 46 N 16 26 30.14 1021 10 16.0934 0 0
2:52 pm 14:52 Mostly Cloudy 55 12.8 34 1.1 45 45 NNW 16 26 30.16 1021 10 16.0934 0 0
3:52 pm 15:52 Partly Cloudy 53 11.7 30 -1.1 41 41 NW 10 17 30.18 1022 10 16.0934 0 0
4:52 pm 16:52 Mostly Cloudy 49 9.4 32 0 52 52 NNW 13 20 30.2 1023 10 16.0934 0 0
5:52 pm 17:52 Mostly Cloudy 47 8.3 30 -1.1 52 52 N 13 20 30.22 1023 10 16.0934 0 0
6:52 pm 18:52 Mostly Cloudy 45 7.2 30 -1.1 56 56 N 15 24 30.24 1024 10 16.0934 0 0
7:52 pm 19:52 Mostly Cloudy 45 7.2 30 -1.1 56 56 NNW 9 15 30.24 1024 10 16.0934 0 0
8:52 pm 20:52 Mostly Cloudy 43 6.1 31 -0.6 63 63 N 10 17 30.24 1024 10 16.0934 0 0
9:52 pm 21:52 Cloudy 43 6.1 30 -1.1 60 60 N 14 22 30.25 1024 10 16.0934 0 0
10:52 pm 22:52 Mostly Cloudy 42 5.6 29 -1.7 60 60 N 10 17 30.24 1024 10 16.0934 0 0
11:52 pm 23:52 Cloudy 41 5 29 -1.7 62 62 N 7 11 30.24 1024 10 16.0934 0 0

Powered by AerisWeather